Regional Weather Roundup
Issued by NWS Portland, ME

Home | Current Version | Previous Version | Text Only | Print | Product List | Glossary On
Versions: 1 2 3 4 5 6 7 8 9 10 11 12 13 14 15 16 17 18 19 20 21 22 23 24 25 26 27 28 29 30 31 32 33 34 35 36 37 38 39 40 41 42 43 44 45 46 47 48 49 50
000
ASUS41 KGYX 240810
RWRGYX
WEATHER ROUNDUP FOR MAINE AND NEW HAMPSHIRE
NATIONAL WEATHER SERVICE GRAY ME
300 AM EST FRI FEB 24 2017

MEZ002-005-006-010-012-015-018-020-021-024-026-027-029-240900-
MAINE

CITY           SKY/WX    TMP DP  RH WIND       PRES   REMARKS
PORTLAND       CLOUDY    45  42  89 W5        29.85R
SANFORD        MOCLDY    45  45 100 CALM      29.87R
BAR HARBOR     PTCLDY    40  40 100 CALM      29.83R FOG
WISCASSET      PTCLDY    35  33  92 CALM      29.86R
ROCKLAND       PTCLDY    41  40  96 W5        29.83R
FRYEBURG       PTCLDY    37  35  92 CALM      29.85R
LEWISTONAUBURN PTCLDY    34  32  92 N5        29.85R
AUGUSTA        CLOUDY    44  38  79 VRB3      29.84R
WATERVILLE     CLOUDY    39  37  93 CALM      29.81R
BANGOR         CLOUDY    36  36 100 W3        29.83R
GREENVILLE       N/A     45  39  79 VRB6      29.79R
MILLINOCKET    CLOUDY    47  38  71 W5        29.80R
HOULTON        CLOUDY    41  38  89 SW7       29.76R
PRESQUE ISLE   PTCLDY    42  35  76 W7        29.77R
FRENCHVILLE    MOCLDY    40  35  83 NW8       29.73R
CARIBOU        MOCLDY    44  36  73 W8        29.74R
$$

NHZ002-005-008-009-011-012-014-240900-
NEW HAMPSHIRE

CITY           SKY/WX    TMP DP  RH WIND       PRES   REMARKS
PORTSMOUTH     MOCLDY    49  46  91 W6        29.85S
ROCHESTER      MOCLDY    45  43  93 CALM      29.86R
NASHUA         CLOUDY    43  41  93 NW3       29.89R
MANCHESTER     CLOUDY    42  38  85 N3        29.86F
CONCORD        PTCLDY    38  36  92 CALM      29.88R
LACONIA        CLOUDY    37  36  96 MISG      29.87S
PLYMOUTH       FAIR      29  29  99 CALM      29.88S
BERLIN         PTCLDY    44  38  79 CALM      29.86R
WHITEFIELD     CLOUDY    32  29  88 CALM      29.87R
JAFFREY        FOG       36  35  96 CALM      29.89S VSB 1/2
KEENE          CLOUDY    34  33  96 CALM      29.91R
LEBANON        MOCLDY    35  33  92 CALM      29.88R
MT WASHINGTON  FOG       32  32 100 W54G64      N/A  VSB 0   WCI  14
$$

VTZ005-007-008-240900-
VERMONT

CITY           SKY/WX    TMP DP  RH WIND       PRES   REMARKS
ST JOHNSBURY     N/A     32  31  96 MISG      29.87R
MONTPELIER     PTCLDY    43  40  89 CALM      29.91R
BURLINGTON     CLOUDY    45  38  76 NE6       29.90R
$$

MAZ007-012-024-CTZ003-RIZ002-NYZ038-NYZ072-240900-
SOUTHERN NEW ENGLAND AND NY

CITY           SKY/WX    TMP DP  RH WIND       PRES   REMARKS
BOSTON         MOCLDY    49  48  97 SW7       29.90S
WORCESTER      PTCLDY    52  48  86 SW10      29.89S
NANTUCKET      LGT RAIN  46  44  93 SW13      29.95F FOG
PROVIDENCE     CLEAR     52  47  83 S5        29.92S
HARTFORD       CLOUDY    47  47 100 NE3       29.90R FOG
ALBANY         CLOUDY    46  42  86 CALM      29.90R
NEW YORK CITY  PTCLDY    53  47  79 S7        29.91S
$$

ANZ081-ANZ082-ANZ150-NHZ014-MEZ023>029-240900-
COASTAL MARINE OBSERVATIONS

STATION/POSITION TIME  TEMP    WIND        PRES    WAVE
                       AIR SEA DIR/SP/G            HT/PER
                 (UTC) (F)     (DEG/KT/KT) (MB)    (FT/S)
MOUNT DESERT ROC 0800   44                 1010.6R
MATINICUS ROCK   0800   44     250/ 15/ 15 1010.0R
ISLE OF SHOALS   0800   52     230/ 14/ 14 1011.2R
JEFFREYS LEDGE   0706      43                N/A     4/11
CASHES LEDGE BUO 0750   45 43              1011.1R   6/ 6
GEORGES BANK BUO 0650   48 44              1015.8    5/11
$$

.............KEY..............
   WCI - WIND CHILL
   TC  - TEMPERATURE IN CELSIUS
   VSB - VISIBILITY IN MILES
   HX  - HEAT INDEX
   FAIR- INDICATES FEW OR NO CLOUDS BELOW 12,000 FT, WITH NO
         SIGNIFICANT WEATHER AND/OR OBSTRUCTIONS TO VISIBILITY.






USA.gov is the U.S. government's official web portal to all federal, state and local government web resources and services.